[[{"header":{"parameterUnit":"m.s-1","parameterCategory":1,"la1":30.2991,"la2":30.254,"lo1":-89.0895,"lo2":-89.0444,"dy":0.0017,"dx":0.0017,"nx":28,"ny":28,"refTime":"2025-02-26T03:00:00:Z","depth":0,"parameterNumber":2,"parameterNumberName":"U-component_of_WINDS"},"data":[0,0,0,0,0,0,0,0,0,0,0,0,0,0,0,0,0,0,0,0,0,0,0,0,0,0,0,0,0,0,0,0,0,0,0,0,0,0,0,0,0,0,0,0,0,0,0,0,0,0,0,0,0,0,0,0,0,0,1.7837,1.7837,0,1.7841,1.7841,1.7841,1.7818,1.7818,1.7817,1.7816,1.7823,1.7824,1.7824,0,0,0,0,0,0,0,0,0,0,0,0,0,1.7813,1.7814,1.7837,1.7837,1.7837,1.7841,1.7841,1.7841,1.7819,1.7818,1.7817,1.7816,1.7822,1.7823,1.7824,0,0,0,0,0,0,0,0,0,0,0,0,0,1.7821,1.7814,1.7837,1.7826,1.7825,1.7841,1.7841,1.7841,1.7819,1.7818,1.7817,1.7816,1.7822,1.7823,1.7824,1.7852,0,0,1.7828,1.7829,0,0,0,0,0,0,0,0,1.7821,1.7822,1.7828,1.7827,1.7826,1.7828,1.7835,1.7845,1.7819,1.7821,1.7816,1.7815,1.7826,1.7826,1.7829,1.7852,1.7852,1.7828,1.7829,1.7829,1.783,0,0,0,0,0,0,0,1.782,1.7822,1.7839,1.7828,1.7827,1.7823,1.7823,1.7837,1.7829,1.7821,1.7819,1.782,1.7825,1.7828,1.7829,1.7852,1.7828,1.7829,1.783,1.783,1.7901,1.7902,0,0,0,0,0,0,1.7821,1.7822,1.7839,1.7839,1.7821,1.7824,1.7824,1.7829,1.7829,1.7828,1.7821,1.7819,1.7827,1.7828,1.7829,1.7864,1.7829,1.783,1.7831,1.79,1.7901,1.7903,0,0,0,0,0,0,1.782,1.7823,1.7838,1.783,1.7832,1.7825,1.7831,1.7829,1.7833,1.7829,1.7827,1.7826,1.7826,1.7828,1.7847,1.7863,1.7831,1.7832,1.7899,1.79,1.7902,1.7931,0,0,0,0,0,0,1.782,1.7823,1.7832,1.783,1.7832,1.7855,1.7832,1.783,1.7834,1.7832,1.7833,1.7832,1.7825,1.7845,1.7848,1.7864,1.7833,1.7897,1.7899,1.7901,1.7928,1.7933,1.7937,0,0,0,0,0,1.7819,1.7839,1.7832,1.7834,1.7843,1.7856,1.7857,1.7848,1.7836,1.7846,1.7844,1.7832,1.7861,1.7847,1.785,1.7867,1.7896,1.7899,1.7901,1.7926,1.7932,1.7937,0,0,0,0,0,0,1.7842,1.7839,1.7831,1.7851,1.7854,1.7852,1.7864,1.7854,1.7861,1.7859,1.7849,1.7849,1.7871,1.7871,1.7856,1.7895,1.7877,1.788,1.7894,1.79,1.7905,1.7905,1.7834,0,0,0,0,0,1.785,1.7859,1.7856,1.7874,1.7876,1.787,1.7875,1.7868,1.7871,1.7872,1.7872,1.7876,1.7886,1.7893,1.7902,1.7928,1.793,1.7942,1.7946,1.795,1.7953,1.797,1.7976,1.7911,1.7911,1.7911,0,0,1.7865,1.7865,1.7871,1.7879,1.788,1.7892,1.7871,1.7883,1.7892,1.7874,1.7893,1.7893,1.7897,1.792,1.7931,1.7921,1.7972,1.7953,1.7956,1.7958,1.7973,1.798,1.7985,1.7913,1.7913,1.7913,0,0,1.79,1.7899,1.7915,1.7918,1.7921,1.7917,1.7921,1.7921,1.7921,1.7939,1.7927,1.7938,1.7955,1.796,1.7964,1.8004,1.7994,1.8007,1.8031,1.8048,1.8053,1.8058,1.8074,1.808,1.801,1.801,1.801,0,1.7919,1.7935,1.7925,1.7939,1.7944,1.7929,1.7947,1.795,1.7956,1.796,1.7949,1.7973,1.7974,1.8,1.801,1.8014,1.802,1.8007,1.8053,1.8057,1.8062,1.8077,1.8083,1.8012,1.8012,1.8012,1.8012,0,1.7959,1.7971,1.7984,1.7991,1.7997,1.8013,1.8008,1.8015,1.8009,1.8007,1.8028,1.803,1.804,1.8046,1.8039,1.8072,1.8066,1.8054,1.8035,1.807,1.8084,1.809,1.8015,1.8014,1.8013,1.8013,0,0,1.8007,1.801,1.8015,1.8019,1.8023,1.8032,1.8049,1.8059,1.8067,1.8073,1.8088,1.8104,1.8094,1.81,1.8094,1.8108,1.8143,1.8095,1.8095,1.8106,1.8182,1.8192,1.8199,1.8137,1.8138,1.8139,1.8183,0,1.8042,1.807,1.8063,1.8091,1.8103,1.809,1.8105,1.811,1.811,1.8121,1.8121,1.8134,1.8118,1.8122,1.8135,1.8136,1.8159,1.8133,1.8153,1.8153,1.8153,1.8206,1.8216,1.8257,1.8188,1.8189,1.819,0,1.8086,1.8094,1.8124,1.8128,1.8133,1.8146,1.8157,1.8167,1.8174,1.8173,1.818,1.8173,1.8191,1.8172,1.8199,1.8182,1.819,1.8192,1.8193,1.8196,1.8174,1.8211,1.827,1.8276,1.8198,1.8197,1.8197,0,1.8121,1.8139,1.8159,1.8163,1.8168,1.8178,1.8181,1.8186,1.8194,1.8204,1.8209,1.8221,1.8228,1.8238,1.8235,1.8221,1.8264,1.8244,1.8266,1.8266,1.8276,1.8275,1.8337,1.8279,1.8279,1.8279,1.8278,0,1.8162,1.818,1.8175,1.8188,1.821,1.8203,1.8226,1.8227,1.8233,1.8247,1.8236,1.8251,1.8245,1.8259,1.8257,1.8282,1.8284,1.8286,1.8285,1.8287,1.8287,1.8293,1.829,1.828,1.828,1.8279,1.8279,0,1.8203,1.82,1.8222,1.8226,1.8228,1.8244,1.8248,1.8261,1.8261,1.8279,1.8283,1.8283,1.83,1.8298,1.8316,1.8315,1.8346,1.8341,1.8344,1.8343,1.8366,1.8364,1.8434,1.8444,1.8378,1.8379,1.8379,0,1.823,1.8244,1.825,1.8259,1.8263,1.8277,1.8285,1.828,1.8289,1.83,1.8312,1.8328,1.834,1.8368,1.8371,1.8386,1.8382,1.8406,1.8384,1.8387,1.8385,1.8385,1.8387,1.841,1.8411,1.8412,1.8412,0,1.8278,1.8277,1.8288,1.8301,1.8311,1.8321,1.833,1.8338,1.8334,1.8346,1.8362,1.8372,1.8392,1.8409,1.8424,1.8428,1.8421,1.8419,1.8425,1.8428,1.843,1.8431,1.8357,1.8417,1.8417,1.8417,1.8416,1.8416,1.8314,1.8328,1.8335,1.8349,1.8356,1.8365,1.8378,1.838,1.8394,1.841,1.8406,1.8426,1.8436,1.8455,1.8461,1.8478,1.8469,1.8478,1.848,1.8483,1.8486,1.8426,1.848,1.848,1.848,1.848,1.848,0,1.8364,1.8368,1.8382,1.8395,1.8407,1.8398,1.8409,1.842,1.8437,1.8446,1.8459,1.8481,1.8498,1.8503,1.8519,1.8532,1.853,1.8537,1.8537,1.8539,1.8492,1.8486,1.8539,1.8539,1.8539,1.8539,1.8539,1.8539,1.8391,1.8414,1.8414,1.8441,1.8446,1.8465,1.8472,1.8482,1.8489,1.8513,1.8527,1.853,1.8539,1.8557,1.8573,1.8574,1.8582,1.8591,1.8591,1.8547,1.8541,1.8536,1.853,1.8592,1.8592,1.8637,1.8637,1.8637]},{"header":{"parameterUnit":"m.s-1","parameterCategory":1,"la1":30.2991,"la2":30.254,"lo1":-89.0895,"lo2":-89.0444,"dy":0.0017,"dx":0.0017,"nx":28,"ny":28,"refTime":"2025-02-26T03:00:00:Z","depth":0,"parameterNumber":3,"parameterNumberName":"V-component_of_WINDS"},"data":[0,0,0,0,0,0,0,0,0,0,0,0,0,0,0,0,0,0,0,0,0,0,0,0,0,0,0,0,0,0,0,0,0,0,0,0,0,0,0,0,0,0,0,0,0,0,0,0,0,0,0,0,0,0,0,0,0,0,-0.6786,-0.6786,0,-0.6776,-0.6776,-0.6776,-0.6753,-0.6752,-0.6752,-0.6751,-0.6744,-0.6744,-0.6744,0,0,0,0,0,0,0,0,0,0,0,0,0,-0.6785,-0.6785,-0.6786,-0.6786,-0.6785,-0.6776,-0.6776,-0.6776,-0.6753,-0.6752,-0.6752,-0.6751,-0.6743,-0.6744,-0.6744,0,0,0,0,0,0,0,0,0,0,0,0,0,-0.6782,-0.6785,-0.6786,-0.6773,-0.6771,-0.6777,-0.6776,-0.6776,-0.6753,-0.6752,-0.6751,-0.6751,-0.6743,-0.6744,-0.6744,-0.6762,0,0,-0.6745,-0.6746,0,0,0,0,0,0,0,0,-0.6782,-0.6782,-0.6775,-0.6774,-0.6772,-0.6765,-0.6773,-0.6771,-0.6753,-0.676,-0.6751,-0.675,-0.6751,-0.6751,-0.6751,-0.6761,-0.6761,-0.6745,-0.6746,-0.6746,-0.6746,0,0,0,0,0,0,0,-0.6782,-0.6782,-0.6782,-0.6775,-0.6773,-0.6768,-0.6767,-0.6773,-0.676,-0.6759,-0.6758,-0.6757,-0.6751,-0.6751,-0.6751,-0.6761,-0.6745,-0.6746,-0.6746,-0.6746,-0.6786,-0.6787,0,0,0,0,0,0,-0.6784,-0.6782,-0.6782,-0.6782,-0.6775,-0.6769,-0.6767,-0.6768,-0.676,-0.6758,-0.6757,-0.6756,-0.675,-0.675,-0.675,-0.6771,-0.6746,-0.6746,-0.6746,-0.6786,-0.6787,-0.6788,0,0,0,0,0,0,-0.6784,-0.6784,-0.6783,-0.6782,-0.6781,-0.6769,-0.6771,-0.6768,-0.6768,-0.6758,-0.6756,-0.676,-0.675,-0.675,-0.6759,-0.677,-0.6746,-0.6747,-0.6785,-0.6786,-0.6787,-0.6812,0,0,0,0,0,0,-0.6784,-0.6784,-0.679,-0.6782,-0.6781,-0.6791,-0.6771,-0.6769,-0.6769,-0.6767,-0.676,-0.6758,-0.6749,-0.6759,-0.676,-0.677,-0.6747,-0.6784,-0.6785,-0.6787,-0.681,-0.6814,-0.6817,0,0,0,0,0,-0.6784,-0.6798,-0.6791,-0.6791,-0.6788,-0.6792,-0.6791,-0.678,-0.677,-0.6776,-0.677,-0.6759,-0.6769,-0.676,-0.6761,-0.6772,-0.6783,-0.6785,-0.6787,-0.6809,-0.6813,-0.6817,0,0,0,0,0,0,-0.6808,-0.6796,-0.6788,-0.68,-0.6797,-0.6788,-0.6795,-0.6785,-0.6786,-0.6784,-0.677,-0.6769,-0.678,-0.6777,-0.6767,-0.6789,-0.6774,-0.6776,-0.6791,-0.6795,-0.6798,-0.6799,-0.6747,0,0,0,0,0,-0.6815,-0.6818,-0.6808,-0.6819,-0.6818,-0.6807,-0.6808,-0.6799,-0.6796,-0.6795,-0.679,-0.6787,-0.679,-0.6793,-0.6795,-0.681,-0.6809,-0.6818,-0.6822,-0.6825,-0.6826,-0.6835,-0.6839,-0.6794,-0.6794,-0.6794,0,0,-0.6828,-0.6822,-0.6825,-0.6823,-0.682,-0.6824,-0.6806,-0.6811,-0.6814,-0.6796,-0.6804,-0.6801,-0.6798,-0.681,-0.6815,-0.6808,-0.6839,-0.6827,-0.6829,-0.683,-0.6838,-0.6842,-0.6846,-0.6795,-0.6795,-0.6795,0,0,-0.6855,-0.6851,-0.6859,-0.6857,-0.6852,-0.6845,-0.6847,-0.684,-0.6837,-0.6845,-0.6832,-0.6836,-0.6841,-0.6839,-0.6839,-0.6867,-0.6857,-0.6868,-0.6887,-0.6896,-0.6899,-0.6902,-0.6913,-0.6917,-0.687,-0.6871,-0.6871,0,-0.6873,-0.6878,-0.6865,-0.6872,-0.6872,-0.6855,-0.6865,-0.6863,-0.686,-0.686,-0.6852,-0.6858,-0.6855,-0.6867,-0.6874,-0.6875,-0.6878,-0.6869,-0.6899,-0.6903,-0.6905,-0.6915,-0.6919,-0.6872,-0.6872,-0.6872,-0.6871,0,-0.69,-0.6904,-0.6912,-0.6909,-0.691,-0.6918,-0.6907,-0.691,-0.6902,-0.6896,-0.6905,-0.6901,-0.6902,-0.6905,-0.6897,-0.6917,-0.6912,-0.6902,-0.6886,-0.6911,-0.692,-0.6924,-0.6874,-0.6873,-0.6873,-0.6873,0,0,-0.6941,-0.6931,-0.6934,-0.6933,-0.6928,-0.6931,-0.6939,-0.6939,-0.6942,-0.6941,-0.6948,-0.6953,-0.6944,-0.6944,-0.6936,-0.6943,-0.6967,-0.6932,-0.6932,-0.6939,-0.6989,-0.6997,-0.7001,-0.696,-0.6961,-0.6961,-0.6989,0,-0.6966,-0.6978,-0.6968,-0.6982,-0.6986,-0.6971,-0.6978,-0.6976,-0.6971,-0.6974,-0.6969,-0.6973,-0.696,-0.696,-0.6967,-0.6962,-0.6976,-0.696,-0.6967,-0.6967,-0.6968,-0.7006,-0.7014,-0.704,-0.6993,-0.6993,-0.6994,0,-0.6997,-0.6997,-0.7012,-0.7006,-0.7007,-0.7013,-0.7014,-0.7017,-0.7015,-0.7011,-0.7012,-0.7002,-0.701,-0.6996,-0.7008,-0.6997,-0.6999,-0.6997,-0.6998,-0.6998,-0.6982,-0.7007,-0.7048,-0.7053,-0.6999,-0.6999,-0.6998,0,-0.7026,-0.703,-0.7039,-0.7038,-0.7032,-0.7037,-0.7034,-0.7031,-0.7033,-0.7034,-0.7035,-0.7037,-0.7038,-0.704,-0.7032,-0.7022,-0.7045,-0.703,-0.7043,-0.7043,-0.7048,-0.7048,-0.7091,-0.705,-0.705,-0.705,-0.705,0,-0.7056,-0.7065,-0.7052,-0.7057,-0.7068,-0.7057,-0.7068,-0.7064,-0.7062,-0.7067,-0.7055,-0.7061,-0.7049,-0.7054,-0.7048,-0.7059,-0.706,-0.7057,-0.7056,-0.7058,-0.7059,-0.706,-0.7058,-0.7051,-0.705,-0.705,-0.705,0,-0.7089,-0.7081,-0.709,-0.7083,-0.7082,-0.709,-0.7085,-0.709,-0.7085,-0.7092,-0.7093,-0.7085,-0.709,-0.7082,-0.7087,-0.7083,-0.7098,-0.7093,-0.7099,-0.7097,-0.7111,-0.711,-0.7156,-0.7162,-0.7117,-0.7117,-0.7118,0,-0.7108,-0.7115,-0.711,-0.7112,-0.711,-0.7115,-0.7116,-0.7106,-0.7108,-0.7107,-0.7113,-0.7117,-0.712,-0.7129,-0.7124,-0.7128,-0.7123,-0.7139,-0.7124,-0.7127,-0.7124,-0.7124,-0.7125,-0.7142,-0.7143,-0.7143,-0.7143,0,-0.7144,-0.714,-0.7142,-0.7143,-0.7146,-0.7146,-0.7146,-0.7149,-0.7138,-0.7142,-0.7147,-0.7149,-0.7154,-0.7158,-0.7161,-0.7159,-0.715,-0.7148,-0.7152,-0.7155,-0.7158,-0.7157,-0.7107,-0.7147,-0.7147,-0.7147,-0.7146,-0.7146,-0.7171,-0.7177,-0.7174,-0.7178,-0.7176,-0.7177,-0.7182,-0.7177,-0.7181,-0.7184,-0.7178,-0.7184,-0.7183,-0.7186,-0.7185,-0.7191,-0.7184,-0.7189,-0.719,-0.7192,-0.7194,-0.7157,-0.7192,-0.7191,-0.7191,-0.7191,-0.7191,0,-0.7206,-0.7204,-0.7207,-0.7207,-0.7211,-0.7201,-0.7201,-0.7204,-0.721,-0.721,-0.7213,-0.7219,-0.7224,-0.7219,-0.7224,-0.7229,-0.7225,-0.7231,-0.723,-0.723,-0.7199,-0.7196,-0.7234,-0.7234,-0.7234,-0.7234,-0.7234,-0.7234,-0.7225,-0.7234,-0.723,-0.724,-0.7237,-0.7243,-0.7244,-0.7245,-0.7244,-0.7252,-0.7255,-0.7253,-0.7251,-0.7255,-0.7259,-0.7258,-0.726,-0.7267,-0.7265,-0.7236,-0.7232,-0.7228,-0.7225,-0.7268,-0.7268,-0.7295,-0.7295,-0.7295]}]]